User: anonymous   Login
Location: Bremen
(53.0793°N, 8.8017°E)
Time: 15:02:58
(UTC+01:00)
Language:

Transit 4A - Orbit

View from above orbital plane
View from above orbital plane
View from above satellite
View from above satellite

Ground track
Ground track

The orbit data is extracted from the following two-line orbital elements,

1   116U 61015A   21341.70586570 -.00000054  00000-0  17678-4 0  9993
2   116  66.8100 332.3697 0076930 346.6758  13.2288 13.91803667 67201
Epoch (UTC): 07 December 2021 16:56:26
Eccentricity: 0.0076930
inclination: 66.8100°
perigee height: 866 km
apogee height: 978 km
right ascension of ascending node: 332.3697°
argument of perigee: 346.6758°
revolutions per day: 13.91803667
mean anomaly at epoch: 13.2288°
orbit number at epoch: 6720

The dashed part of the orbit path shows where the satellite is in the earth's shadow,  

DLR